{"data":{"norad_id":56109,"intl_designator":"2023-046S","name":"STARLINK-6083","alt_names":[],"object_type":"PAYLOAD","status":"ACTIVE","operator":null,"country":"US","launch_date":"2023-03-29","launch_site_code":"AFETR","launch_vehicle":null,"mission":null,"orbit_class":"UNKNOWN","rcs_meters":null,"size_class":null,"mass_kg":null,"dimensions":null,"purposes":["comms"],"wikipedia_slug":null,"has_3d_model":false,"image_url":null,"decayed_at":null,"tle_current":{"epoch":"2026-05-24T23:09:09.095040Z","epoch_age_seconds":71486,"freshness":"FRESH","line1":"1 56109U 23046S   26144.96468860 -.00000204  00000+0  21152-5 0  9992","line2":"2 56109  43.0053  91.0543 0001297 284.3415  75.7292 15.27573392173698","mean_motion":15.27573392,"eccentricity":0.0001297,"inclination_deg":43.0053,"raan_deg":91.0543,"arg_perigee_deg":284.3415,"mean_anomaly_deg":75.7292,"bstar":2.1152e-6,"rev_number":17369,"period_min":94.267156494174,"perigee_km":482.17898443719,"apogee_km":483.9587812432,"semimajor_km":6861.2058828402,"source":"CELESTRAK","updated_at":"2026-05-25T13:38:17.956039Z"}}}